Location: La Vergne
(36.0160°N, 86.5820°W)
Time: 03:59:37
(UTC-05:00)

Daily predictions for brighter satellites

Satellite Brightness Start Highest point End
(mag) Time Altitude Azimuth Time Altitude Azimuth Time Altitude Azimuth
NOSS 3-4 (A) 4.0 00:04:39 40° W 00:06:24 52° NW 00:12:37 10° NNE
NOSS 3-4 (C) 4.0 00:04:47 41° W 00:06:29 53° NW 00:12:43 10° NNE
Cosmos 2369 Rocket 4.4 00:10:58 13° ENE 00:10:58 13° ENE 00:12:10 10° ENE
Cosmos 2297 3.8 00:15:00 70° NNE 00:15:00 70° NNE 00:20:02 10° NNE
SL-19 R/B 4.4 00:09:05 10° N 00:14:13 62° NW 00:14:13 62° NW
Nadezhda 1 Rocket 4.0 00:26:00 76° ENE 00:26:00 76° ENE 00:32:14 10° N
CENTAUR R/B 3.5 00:17:53 10° NNW 00:25:52 60° NE 00:28:42 42° ESE
Cosmos 2082 Rocket 2.4 00:21:18 10° NNW 00:26:25 69° N 00:26:25 69° N
Meteor 2-10 Rocket 4.4 00:25:06 10° N 00:29:12 42° NE 00:29:12 42° NE
USA 234 3.1 00:24:00 10° NE 00:30:35 86° NW 00:31:12 75° WSW
ADEOS Rocket 3.0 00:26:41 10° N 00:32:34 71° WNW 00:32:42 71° W
ATLAS 5 CENTAUR R/B 3.0 00:33:08 37° NW 00:33:08 37° NW 00:37:04 10° NNE
ALOS 2 4.1 00:36:59 34° NNW 00:36:59 34° NNW 00:39:35 10° NNW
Cosmos 1833 Rocket 3.1 00:32:55 10° NNW 00:37:29 58° NW 00:37:29 58° NW
Meteor 2-21 Rocket 4.4 00:41:26 10° N 00:47:09 73° NE 00:47:09 73° NE
Cosmos 2074 Rocket 4.3 00:44:37 10° NNW 00:50:27 56° W 00:50:27 56° W
Cosmos 371 Rocket 4.5 00:50:16 10° N 00:54:04 38° NE 00:54:04 38° NE
ATLAS 3B R/B 4.2 00:58:51 10° WNW 01:02:05 20° W 01:02:05 20° W
Cosmos 1943 Rocket 3.4 01:04:49 30° E 01:04:49 30° E 01:08:34 10° NE
BREEZE-M R/B 4.3 01:03:36 10° NW 01:09:17 79° SW 01:10:01 71° SSE
H-2A R/B 4.1 01:14:25 20° NW 01:14:25 20° NW 01:15:57 10° NNW
Cosmos 2181 Rocket 3.9 01:30:27 81° W 01:30:29 81° W 01:36:49 10° N
Cosmos 2154 Rocket 4.5 01:24:52 10° NNW 01:30:40 49° W 01:30:40 49° W
Meteor 2-3 Rocket 4.4 01:33:47 44° E 01:33:47 44° E 01:39:13 10° NNE
Cosmos 1140 Rocket 4.1 01:35:37 47° NW 01:35:37 47° NW 01:39:55 10° N
BREEZE-M DEB (TANK) 4.1 01:38:13 69° SSW 01:38:58 77° SE 01:42:47 10° ENE
Cosmos 2341 Rocket 4.1 01:33:50 10° NNW 01:40:02 65° W 01:40:02 65° W
MOS 1 Rocket 4.0 01:38:03 10° N 01:42:03 49° NNW 01:42:03 49° NNW
Lacrosse 4 Rocket 3.9 01:47:55 15° E 01:47:55 15° E 01:49:29 10° ENE
Cosmos 2369 Rocket 2.3 01:52:45 65° WNW 01:52:45 65° WNW 01:58:16 10° NNE
Cosmos 2218 Rocket 3.8 01:49:59 10° N 01:56:11 89° W 01:56:32 81° S
Resurs 1-4 Rocket 3.5 01:53:21 10° NE 01:57:49 27° E 01:58:23 26° ESE
SL-8 Rocket 4.0 01:57:14 10° NNW 02:03:26 64° W 02:03:36 64° WSW
Cosmos 864 Rocket 4.3 02:00:09 10° N 02:06:27 86° W 02:07:00 75° SSW
Sich 1 4.4 02:12:10 32° NW 02:12:10 32° NW 02:15:06 10° N
CRYOSAT 2 4.4 02:12:49 77° NNE 02:12:49 77° NNE 02:17:22 10° N
Cosmos 1862 Rocket 4.2 02:10:57 10° N 02:15:07 53° ENE 02:15:07 53° ENE
Timation 2 Rocket 4.0 02:09:10 10° NNW 02:15:50 68° WSW 02:16:33 64° SW
CENTAUR R/B 4.0 02:09:17 10° NW 02:15:50 32° WSW 02:15:50 32° WSW
Cosmos 1850 Rocket 4.4 02:16:36 50° WNW 02:16:36 50° WNW 02:21:32 10° N
SL-16 R/B 3.3 02:15:14 25° SE 02:18:29 47° ENE 02:24:19 10° N
Cosmos 1606 3.9 02:17:13 10° N 02:20:07 40° NE 02:20:07 40° NE
Cosmos 1825 3.3 02:24:54 41° N 02:24:54 41° N 02:27:26 10° N
Cosmos 304 Rocket 4.3 02:23:22 10° NNW 02:27:05 49° NW 02:27:05 49° NW
Cosmos 1633 Rocket 4.3 02:29:31 32° NW 02:29:31 32° NW 02:32:41 10° NNW
Cosmos 2366 rocket 4.1 02:23:10 10° NNW 02:29:05 52° W 02:29:25 51° WSW
Cosmos 1470 Rocket 3.9 02:34:08 58° NW 02:34:08 58° NW 02:38:02 10° N
Meteor 2-15 Rocket 4.3 02:33:13 62° SW 02:34:08 73° W 02:40:14 10° N
Nadezhda 3 Rocket 3.9 02:34:21 58° S 02:35:45 87° W 02:42:09 10° N
CBERS-1 3.9 02:30:38 10° NNE 02:35:47 79° ESE 02:36:18 70° SSE
Cosmos 1656 Rocket 3.5 02:35:19 69° SSW 02:36:03 87° ESE 02:41:44 10° NNE
ARIANE 5 R/B 3.6 02:32:54 10° NNE 02:37:26 34° E 02:38:45 30° SE
Cosmos 1833 4.3 02:33:22 10° NNW 02:38:58 71° ENE 02:41:13 37° SE
Cosmos 1408 4.2 02:42:52 29° NW 02:42:52 29° NW 02:45:08 10° N
Meteor 1-26 Rocket 4.5 02:37:12 10° NNW 02:42:41 49° W 02:42:48 49° W
IRS-1C 4.2 02:38:33 10° NNE 02:43:53 68° ESE 02:44:59 53° SSE
ATLAS 2A CENTAUR R/B 4.5 02:46:15 27° S 02:46:16 27° S 02:52:39 10° ESE
H-2A R/B 2.5 02:43:03 10° NNE 02:46:46 68° ENE 02:46:46 68° ENE
Cosmos 1943 Rocket 3.3 02:46:20 28° W 02:47:21 29° WNW 02:52:11 10° N
Cosmos 1782 3.0 02:43:26 10° N 02:46:59 69° NNE 02:46:59 69° NNE
Cosmos 1763 Rocket 3.9 02:42:47 10° N 02:47:47 58° ENE 02:50:06 30° SE
NPP 3.6 02:44:00 10° N 02:49:22 69° WNW 02:50:14 58° SW
Cosmos 1867 3.5 02:50:53 60° S 02:51:50 77° ESE 02:57:18 10° NNE
Meteor 1-10 Rocket 4.3 02:47:40 10° N 02:53:14 71° E 02:55:39 35° SSE
SL-08 R/B 3.2 02:55:04 59° SSE 02:56:00 88° ENE 03:00:44 10° NNW
Cosmos 1933 Rocket 4.2 02:56:24 41° WNW 02:56:24 41° WNW 03:00:11 10° N
Cosmos 2239 Rocket 4.5 02:49:51 10° N 02:56:04 82° E 02:58:53 35° SSE
CZ-4B R/B 4.1 02:58:59 11° NW 02:58:59 11° NW 02:59:04 10° NW
Cosmos 1934 Rocket 4.3 02:54:11 10° N 03:00:29 65° E 03:04:31 23° SSE
Cosmos 1814 Rocket 4.2 02:55:34 10° NNW 03:00:52 71° ENE 03:03:42 27° SSE
Cosmos 292 Rocket 4.3 02:57:29 10° N 03:02:14 57° ENE 03:05:12 22° SE
CZ-2D R/B 2.1 02:56:59 10° N 03:02:17 75° WNW 03:03:34 52° SW
BREEZE-M R/B 4.4 03:00:43 30° S 03:02:44 35° SSE 03:06:32 10° ENE
Cosmos 1818 3.7 03:03:03 10° NNW 03:08:33 76° ENE 03:13:59 10° SE
GP-B 4.0 03:05:14 10° NNW 03:09:07 34° WNW 03:09:07 34° WNW
Cosmos 2208 Rocket 4.5 03:04:38 10° NNW 03:09:41 42° WSW 03:09:56 42° WSW
Spot 4 Rocket 4.0 03:05:16 10° NNE 03:10:25 77° ESE 03:12:12 42° S
ADEOS II 3.7 03:07:01 10° NE 03:11:33 28° E 03:15:23 13° SSE
BREEZE-M TANK 4.1 03:10:01 15° WNW 03:12:01 23° NNW 03:14:18 10° NE
MOZ.5/SAFIR/RUBIN 5/SL-8 3.7 03:12:01 41° SSE 03:13:41 89° E 03:18:22 10° NNW
Cosmos 841 Rocket 3.6 03:11:08 10° NNW 03:16:22 75° ENE 03:20:11 18° SSE
Cosmos 1862 3.2 03:17:17 65° WSW 03:17:32 68° W 03:21:30 10° N
IRS-1D 3.6 03:16:51 10° N 03:21:54 59° WNW 03:23:24 41° SW
Cosmos 2221 Rocket 4.1 03:17:57 10° N 03:22:19 57° E 03:25:10 21° SSE
Meteor 1-4 Rocket 3.0 03:22:01 45° SE 03:22:47 57° E 03:26:22 10° NNE
Delta 2 Rocket 3.4 03:22:53 49° WSW 03:24:02 78° S 03:29:00 10° E
Lacrosse 4 Rocket 2.2 03:24:15 36° W 03:25:06 40° WNW 03:29:18 10° N
COSMOS 2455 3.4 03:21:13 10° NNW 03:27:11 59° ENE 03:33:05 10° SE
Cosmos 1184 Rocket 3.4 03:25:04 10° N 03:28:15 52° E 03:29:22 33° SE
Cosmos 1727 Rocket 4.3 03:25:00 19° S 03:29:25 64° E 03:35:35 10° NNE
Cosmos 1821 Rocket 4.3 03:23:55 10° NNW 03:29:58 50° W 03:32:42 31° SSW
H-II Stage 2 4.3 03:27:59 29° SSW 03:30:30 34° S 03:58:07 10° SE
GPS 2-04 Rocket1 4.0 03:30:49 25° SSE 03:30:49 25° SSE 03:34:10 10° E
Cosmos 1869 Rocket 3.6 03:30:23 45° SW 03:31:22 58° W 03:35:40 10° N
Cosmos 1354 Rocket 4.1 03:32:52 29° S 03:35:34 73° ESE 03:40:47 10° NNE
Resurs 1-4 Rocket 3.0 03:32:52 10° N 03:37:36 33° WNW 03:39:28 26° WSW
CZ-2D R/B 3.4 03:35:50 10° NNE 03:40:06 85° ESE 03:41:58 32° S
Cosmos 1486 Rocket 4.4 03:38:28 32° WSW 03:40:32 48° WNW 03:45:41 10° N
Cosmos 2227 Rocket 4.4 03:38:38 10° N 03:43:24 27° ENE 03:48:08 10° ESE
ATLAS CENTAUR R/B 2.5 03:42:12 21° SSE 03:43:54 31° ESE 03:47:22 10° NE
SAR-Lupe-2 3.6 03:42:19 21° SSE 03:44:33 75° ENE 03:48:07 10° N
UNKNOWN OBJECT B 2.8 03:43:27 10° N 03:47:26 80° WNW 03:49:16 32° SSW
CBERS 1 LM4 rocket 4.4 03:44:00 10° N 03:49:00 67° WNW 03:51:37 27° SSW
USA 229 DEB 4.4 03:45:05 10° NNW 03:52:16 63° NE 03:59:36 10° SE
USA 229 4.4 03:45:11 10° NNW 03:52:22 62° NE 03:59:42 10° SE
Cosmos 1703 Rocket 4.5 03:49:56 10° NNW 03:53:45 29° W 03:54:42 27° WSW
Milstar 3 Cent rocket 4.0 03:40:02 16° WSW 03:53:47 55° S 04:01:38 10° ESE
Cosmos 389 Rocket 2.9 03:52:11 21° S 03:54:23 60° E 03:57:58 10° NNE
SL-16 R/B 3.6 04:00:20 21° WSW 04:02:15 24° W 04:07:06 10° NW
Cosmos 44 Rocket 3.4 04:01:14 21° SSW 04:04:23 76° ESE 04:09:21 10° NNE
Cosmos 1503 Rocket 4.2 04:03:21 23° SW 04:06:26 53° WNW 04:11:30 10° N
Meteor 1-25 Rocket 4.4 04:03:53 10° S 04:09:24 72° E 04:14:56 10° NNE
Okean 1-7 4.2 04:07:01 10° NNW 04:10:40 26° W 04:12:20 21° WSW
Cosmos 968 Rocket 3.5 04:06:39 16° SSW 04:10:54 86° ESE 04:16:12 10° NNE
Helios 1A Rocket 3.4 04:09:27 10° N 04:13:16 42° WNW 04:15:37 20° SW
Cosmos 1633 2.6 04:13:21 21° SSW 04:15:32 56° W 04:19:05 10° N
ARIANE 5 R/B 3.8 04:12:26 10° NNW 04:16:20 23° WNW 04:19:05 15° WSW
Cosmos 1656 4.0 04:13:11 11° S 04:18:36 70° ESE 04:24:15 10° NNE
BREEZE-M DEB (TANK) 3.0 04:16:38 10° NW 04:19:37 82° SW 04:28:20 10° SE
Cosmos 1733 Rocket 3.1 04:17:59 16° SSW 04:21:19 57° W 04:25:34 10° N
Cosmos 44 3.9 04:19:37 17° WSW 04:22:47 41° NW 04:27:26 10° NNE
Okean 3 3.7 04:21:19 10° N 04:25:30 74° E 04:29:41 10° SSE
CZ-4B R/B 4.2 04:23:02 10° NNE 04:26:53 40° E 04:30:55 10° S
Cosmos 1812 3.1 04:27:38 10° NNW 04:31:19 43° W 04:34:59 10° SSW
DELTA 2 R/B(2) 2.9 04:30:58 25° W 04:31:38 43° SSW 04:33:16 10° SE
ADEOS 4.5 04:28:38 10° N 04:33:16 33° WNW 04:37:28 12° SW
Cosmos 1674 Rocket 3.4 04:30:53 10° N 04:35:13 80° W 04:39:30 10° S
SEDSat Delta rocket 4.3 04:33:52 14° SW 04:35:52 19° SSW 04:38:56 10° SSE
Cosmos 1908 Rocket 3.7 04:31:41 10° S 04:36:08 79° E 04:40:35 10° N
Cosmos 2100 Rocket 4.0 04:30:00 10° N 04:36:10 79° W 04:42:22 10° S
Cosmos 1697 Rocket 3.1 04:31:36 10° S 04:37:09 63° ESE 04:42:45 10° NNE
Cosmos 1459 Rocket 4.0 04:35:06 10° N 04:41:28 78° W 04:47:49 10° S
ASTEX 1 3.7 04:37:15 10° SSW 04:42:04 48° W 04:46:54 10° NNW
Cosmos 2369 3.8 04:42:21 10° SSW 04:47:57 67° WNW 04:53:36 10° NNE
Cosmos 2219 3.9 04:44:27 10° NW 04:49:27 33° WSW 04:54:24 10° SSW
ADEOS II 3.1 04:46:37 10° N 04:51:10 31° WNW 04:55:42 10° SW
PSLV R/B 4.0 04:53:44 10° NNE 04:57:49 88° ESE 05:01:56 10° SSW
Okean O Rocket 2.7 04:53:38 10° NNE 04:57:57 48° E 05:02:15 10° S
Okean 1 3.3 04:56:05 10° NNW 05:00:00 63° W 05:03:54 10° S
Genesis I 3.5 04:56:46 10° NW 05:00:41 47° WSW 05:04:33 10° S
ATLAS 2A CENTAUR R/B 3.3 04:54:44 10° WSW 05:02:21 31° S 05:06:20 10° ESE
Cosmos 2123 Rocket 4.0 04:56:10 10° S 05:02:23 82° W 05:08:36 10° N
Cosmos 1980 Rocket 2.9 04:57:07 10° S 05:02:35 57° ESE 05:08:05 10° NNE
